Regional Weather Roundup
Issued by NWS

Home | Current Version | Previous Version | Text Only | Print | Product List | Glossary On
Versions: 1 2 3 4 5 6 7 8 9 10 11 12 13 14 15 16 17 18 19 20 21 22 23 24 25 26 27 28 29 30 31 32 33 34 35 36 37 38 39 40 41 42 43 44 45 46 47 48 49 50
000
ASUS44 KFWD 210310
RWRTX
NORTH TEXAS HOURLY WEATHER ROUNDUP
NATIONAL WEATHER SERVICE FORT WORTH TX
1000 PM CDT SUN AUG 20 2017

NOTE: "FAIR" INDICATES FEW OR NO CLOUDS BELOW 12,000 FEET WITH NO
SIGNIFICANT WEATHER AND/OR OBSTRUCTIONS TO VISIBILITY.

TXZ118-119-210400-
DALLAS/FORT WORTH METROPLEX

CITY           SKY/WX    TMP DP  RH WIND       PRES   REMARKS
DFW AIRPORT    PTCLDY    89  72  56 SE12      29.98R HX  96
DALLAS LOVE    PTCLDY    89  72  56 SE14      29.99R HX  96
FTW MEACHAM    MOCLDY    90  72  55 SE10      29.99R HX  97
DAL-EXECUTIVE  CLEAR     85  73  67 SE6       29.99R HX  91
FTW-ALLIANCE   PTCLDY    87  70  56 SE9       29.99R HX  92
FTW-NAS-JRB    MOCLDY    91  70  49 SE10      29.99R HX  96
FTW-SPINKS     CLEAR     87  70  57 SE6       30.01R HX  92
ARLINGTON      CLEAR     87  73  62 E8        29.99R HX  94
GRAND PRAIRIE  CLEAR     88  69  54 E7        30.00R HX  92
ADDISON        CLEAR     88  70  55 E15       29.98R HX  92
MESQUITE         N/A     83  72  68 SW5       29.99R
LANCASTER      CLEAR     85  72  63 CALM      30.00R HX  91
$$

TXZ091>094-102>105-117-120-121-131>134-210400-
NORTH CENTRAL TEXAS

CITY           SKY/WX    TMP DP  RH WIND       PRES   REMARKS
SHRMAN/DENISON CLEAR     84  73  68 SE9       30.02R HX  90
GAINESVILLE    CLEAR     83  71  66 SE8       30.02R
BOWIE          CLEAR     81  71  71 CALM      30.01R
BRIDGEPORT     CLEAR     84  69  60 SE5       30.01R
DECATUR        CLEAR     83  70  64 SE6         N/A
DENTON         CLEAR     87  72  60 SE9       29.99R HX  93
MCKINNEY       CLEAR     83  76  79 SE5       30.00R HX  91
BONHAM         CLEAR     81  73  78 SE6       30.01R
GREENVILLE     CLEAR     84  75  74 SE8       30.01R HX  92
ROCKWALL       CLEAR     83  73  70 SE6       30.01R
TERRELL        CLEAR     84  72  67 E6        30.00R
WAXAHACHIE     CLEAR     85  73  67 CALM      30.01R HX  91
CLEBURNE       PTCLDY    88  70  55 SE15      30.01R HX  92
GRANBURY       CLEAR     88  66  47 SE6       30.00R HX  90
$$

TXZ083>090-098>101-113>116-127>130-139>142-154-155-210400-
WESTERN NORTH TEXAS

CITY           SKY/WX    TMP DP  RH WIND       PRES   REMARKS
WICHITA FALLS  CLEAR     81  69  67 SE10      29.98R
WF-KICKAPOO    CLEAR     83  70  64 SE6       30.01R
VERNON         CLEAR     86  60  40 SE10      29.99R
ABILENE        CLEAR     81  61  50 SE8       30.02R
ABILENE-DYESS  CLEAR     84  63  49 S7        30.00R
GRAHAM         CLEAR     84  66  55 SE5       29.98R
BRECKENRIDGE   CLEAR     86  64  47 SE8       30.00R
CISCO          CLEAR     82  64  54 SE8       30.02R
EASTLAND       CLEAR     84  65  52 SE6       30.02R
RANGER         CLEAR     82  65  57 SE7       30.02R
MINERAL WELLS  CLEAR     81  68  64 SE6       29.98R
STEPHENVILLE   CLEAR     82  66  57 SE3       30.04R
COMANCHE       CLEAR     82  64  53 SE6       30.02R
BROWNWOOD      CLEAR     82  63  51 SE7       30.02R
COLEMAN        CLEAR     85  59  41 SE8       30.02R
$$

TXZ143>147-156>162-174-175-210400-
CENTRAL TEXAS

CITY           SKY/WX    TMP DP  RH WIND       PRES   REMARKS
WACO           CLEAR     88  67  49 SE7       29.98R HX  91
WACO-TSTC      CLEAR     84  66  54 CALM      29.98R
WACO-MCGREGOR  CLEAR     85  65  51 S6        29.99R
HILLSBORO      MOCLDY    87  69  55 E6        30.00R HX  91
CORSICANA      CLEAR     87  73  62 SE12      30.00R HX  94
MEXIA          CLEAR     85  67  55 CALM      29.99R
HEARNE         CLEAR     85  68  57 SE8       30.00R
CAMERON        CLEAR     87  64  46 S7        29.99R
TEMPLE         CLEAR     88  66  48 SE13      30.00R HX  90
KILLEEN        CLEAR     87  65  49 SE8       30.00R
KILLEEN-SKYLRK CLEAR     88  68  51 SE8       30.01R HX  91
FORT HOOD      CLEAR     87  66  48 SE8       29.98R
HAMILTON       CLEAR     84  63  49 SE7       30.03R
LAMPASAS       CLEAR     83  66  56 CALM      30.01R
$$

TXZ095>097-106>112-122>126-135>138-148>153-164>167-210400-
EAST TEXAS

CITY           SKY/WX    TMP DP  RH WIND       PRES   REMARKS
PARIS          CLEAR     79  73  82 E8        30.04R
SULPHUR SPRNGS CLEAR     83  73  73 SE9       30.03R
MOUNT PLEASANT CLEAR     78  72  80 E3        30.04R
GILMER         CLEAR     79  75  87 CALM      30.03R THUNDER
MINEOLA        CLEAR     81  75  83 SE6       30.02R
TYLER          CLEAR     82  74  76 SE13      30.02R
LONGVIEW       CLEAR     79  76  90 S6        30.02R
MARSHALL         N/A     76  73  90 CALM      30.04S
ATHENS         CLEAR     81  70  69 SE6       30.00R
PALESTINE      CLEAR     83  73  69 E9        30.03R
JACKSONVILLE   CLOUDY    80  73  78 SE5       30.06R
HENDERSON      CLEAR     78  73  82 SE3       30.05R
CENTER         CLOUDY    81  80  96 CALM      30.05R HX  91
NACOGDOCHES    MOCLDY    78  73  84 E3        30.04R
LUFKIN         CLOUDY    78  72  81 E5        30.03R
$$

SUPPLEMENTAL OBSERVATIONS (NWS FORT WORTH AREA)

CITY           SKY/WX    TMP DP  RH WIND       PRES   REMARKS
CADDO GRASSLND   N/A     82  73  74 SE6         N/A
PAT MAYSE LAKE   N/A     82  75  78 E9          N/A
GREENVILLE       N/A     82  73  74 SE7         N/A
CEDAR HILL       N/A     86  70  58 E3          N/A  HX  90
LBJ GRASSLAND    N/A     84  68  58 SE7         N/A
POSSUM KINGDOM   N/A     86  66  51 SE9         N/A
GRANBURY         N/A     88  66  48 SE7         N/A  HX  90
MCGREGOR         N/A     88  64  45 SE9         N/A
TEMPLE           N/A     88  64  45 SE5         N/A
$$

SUPPLEMENTAL OBSERVATIONS (NWS NORMAN AREA)

CITY           SKY/WX    TMP DP  RH WIND       PRES   REMARKS
GOODLETT         N/A     85  62  46 SE10      29.99R
ODELL            N/A     85  65  52 SE12      30.00R
CROWELL          N/A     85  65  50 SE10      30.00R
KNOX CITY        N/A     84  62  47 SE14      30.00R
SEYMOUR          N/A     85  62  46 SE9       30.00R
$$

SUPPLEMENTAL OBSERVATIONS (NWS SAN ANGELO AREA)

CITY           SKY/WX    TMP DP  RH WIND       PRES   REMARKS
WEINERT          N/A     85  65  51 SE10      30.01R
HASKELL          N/A     85  60  42 SE8       30.01R
THROCKMORTON     N/A     81  68  64 SE6       30.01R
STAMFORD         N/A     81  62  53 E7        30.01R
CLYDE            N/A     82  60  47 SE7       30.05R
HAMBY            N/A     81  59  47 E5          N/A
IVIE RESERVOIR   N/A     82  59  44 E7          N/A
COLORADO BEND    N/A     82  61  47 SE3         N/A
$$

SUPPLEMENTAL OBSERVATIONS (NWS SHREVEPORT AREA)

CITY           SKY/WX    TMP DP  RH WIND       PRES   REMARKS
CLARKSVILLE      N/A     79  70  73 SE3         N/A
TEXARKANA        N/A     75  73  94 CALM        N/A
LINDEN           N/A     77  72  83 CALM        N/A
GILMER           N/A     79  75  89 S1          N/A
HENDERSON        N/A     79  73  83 SE5         N/A
LUFKIN           N/A     75  73  94 MISG        N/A
N SABINE NF      N/A     77  73  88 MISG        N/A
S SABINE NF      N/A     77  73  88 CALM        N/A
$$

SUPPLEMENTAL OBSERVATIONS ARE A COLLECTION OF AUTOMATED INSTRUMENTS
THAT ARE MAINTAINED BY A VARIETY OF FEDERAL AND STATE AGENCIES.
CERTAIN ELEMENTS...SUCH AS HUMIDITY VALUES AND SUSTAINED WIND
SPEEDS...MAY BE APPROXIMATED.





USA.gov is the U.S. government's official web portal to all federal, state and local government web resources and services.